Weather History for KMGW - January, 2014

Change the Weather History Date:

Sunday, January 5, 2014

  Actual Average Record
Temperature  
Mean Temperature 40 °F 31 °F  
Max Temperature 56 °F 39 °F 69 °F (1998)
Min Temperature 24 °F 24 °F -4 °F (1968)
Degree Days  
Heating Degree Days 25 34  
Month to date heating degree days 194 167  
Since 1 July heating degree days 2148 2151  
Cooling Degree Days 0 0  
Month to date cooling degree days 0 0  
Year to date cooling degree days 0 0  
Moisture  
Dew Point 30 °F    
Average Humidity 59    
Maximum Humidity 75    
Minimum Humidity 42    
Precipitation  
Precipitation T in 0.09 in 1.44 in (2005)
Month to date precipitation 0.27 0.45  
Year to date precipitation 0.27 0.45  
Sea Level Pressure  
Sea Level Pressure 29.89 in    
Wind  
Wind Speed 4 mph (South)    
Max Wind Speed 17 mph    
Max Gust Speed 24 mph    
Visibility 10 miles    
Events      
T = Trace of Precipitation, MM = Missing Value Source: NWS Daily Summary

Daily Weather History Graph

Daily Weather History Graph

Search for Another Location

Airport or City:

Trip Planner

Search our weather history database for the weather conditions in past years. The results will help you decide how hot, cold, wet, or windy it might be!

Date:

Astronomy

Jan. 05, 2014 Rise Set
Actual Time 7:40 AM EST 5:09 PM EST
Civil Twilight 7:10 AM EST 5:39 PM EST
Nautical Twilight 6:37 AM EST 6:13 PM EST
Astronomical Twilight 6:04 AM EST 6:46 PM EST
Moon 10:22 AM EST (1/5) 10:34 PM EST (1/5)
Length of Visible Light 10h 29m
Length of Day
9h 29m
Waxing Crescent, 24% of the Moon is Illuminated
Jan 5
Waxing Crescent
Jan 7
First Quarter
Jan 15
Full
Jan 24
Last Quarter
Jan 30
New

Hourly Weather History & Observations

Time (EST) Temp. Windchill Dew Point Humidity Pressure Visibility Wind Dir Wind Speed Gust Speed Precip Events Conditions
12:53 AM 27.0 °F - 15.1 °F 61% 30.16 in 10.0 mi Calm Calm - N/A   Clear
1:53 AM 28.0 °F - 10.9 °F 49% 30.16 in 10.0 mi Calm Calm - N/A   Clear
2:53 AM 28.9 °F - 8.1 °F 41% 30.15 in 10.0 mi Calm Calm - N/A   Scattered Clouds
3:53 AM 30.0 °F 25.2 °F 10.9 °F 45% 30.13 in 10.0 mi South 4.6 mph - N/A   Mostly Cloudy
4:53 AM 36.0 °F - 19.9 °F 52% 30.12 in 10.0 mi Calm Calm - N/A   Overcast
5:53 AM 30.9 °F - 19.9 °F 64% 30.12 in 10.0 mi Calm Calm - N/A   Overcast
6:53 AM 30.0 °F - 21.0 °F 69% 30.12 in 10.0 mi Calm Calm - N/A   Overcast
7:53 AM 33.1 °F - 25.0 °F 72% 30.13 in 10.0 mi Calm Calm - N/A   Overcast
8:53 AM 33.1 °F - 26.1 °F 75% 30.13 in 10.0 mi Calm Calm - 0.00 in   Overcast
9:53 AM 37.0 °F 32.4 °F 26.1 °F 65% 30.09 in 10.0 mi East 5.8 mph - N/A   Mostly Cloudy
10:53 AM 39.9 °F - 26.1 °F 58% 30.05 in 10.0 mi Calm Calm - N/A   Partly Cloudy
11:53 AM 45.0 °F - 28.0 °F 52% 29.99 in 10.0 mi Calm Calm - N/A   Clear
12:53 PM 48.0 °F - 30.9 °F 52% 29.91 in 10.0 mi Calm Calm - N/A   Scattered Clouds
1:53 PM 50.0 °F - 32.0 °F 50% 29.86 in 10.0 mi Calm Calm - N/A   Clear
2:53 PM 51.1 °F - 37.0 °F 59% 29.81 in 10.0 mi South 6.9 mph - N/A   Mostly Cloudy
3:53 PM 52.0 °F - 41.0 °F 66% 29.76 in 10.0 mi SSE 10.4 mph - N/A   Mostly Cloudy
4:53 PM 53.1 °F - 43.0 °F 69% 29.72 in 10.0 mi SSE 5.8 mph - N/A   Clear
5:53 PM 55.0 °F - 44.1 °F 67% 29.70 in 10.0 mi South 13.8 mph 24.2 mph N/A   Mostly Cloudy
6:53 PM 55.0 °F - 44.1 °F 67% 29.65 in 10.0 mi South 9.2 mph 18.4 mph N/A   Mostly Cloudy
7:53 PM 55.0 °F - 45.0 °F 69% 29.62 in 10.0 mi South 6.9 mph - N/A   Clear
8:53 PM 55.9 °F - 44.1 °F 64% 29.57 in 10.0 mi Variable 6.9 mph - N/A   Clear
9:53 PM 55.9 °F - 43.0 °F 62% 29.55 in 10.0 mi South 8.1 mph - N/A   Clear
10:53 PM 55.9 °F - 42.1 °F 60% 29.50 in 10.0 mi SSW 8.1 mph 16.1 mph N/A   Overcast
11:53 PM 55.9 °F - 41.0 °F 57% 29.44 in 10.0 mi South 9.2 mph 19.6 mph 0.00 in   Overcast